ORBCOMM FM112

Last updated on Tue Sep 22 2026 00:03:23 GMT+0000 (Coordinated Universal Time)

1 41184U 15081F 26264.08716371 .00000296 00000+0 98680-4 0 9997 2 41184 46.9983 176.7300 0003441 291.9835 68.0685 14.58963045572958
UTC large
Height (km)
Speed (km/s)
/
Latitude / Longitude
Inclination (degrees)
Orbital Period (minutes)
Azimuth
Elevation
Range (km)
Doppler Factor

Next 0 passes for location: London (51.5072 / 0.1276)

No passes found over London.
ORBCOMM FM112